カタログに戻る

COSMOS 2251 DEB

運用中LEO
NORAD 33896·DEBRIS·🇷🇺 Russia

打ち上げ Jun 16, 1993 から Plesetsk Cosmodrome

Loading…

次のパス (今後24時間)

TLE

最新Source: Space-Track

元期: Sep 13, 2026, 18:07 UTC

1 33896U 93036CZ  26256.75493940  .00001138  00000-0  50954-3 0  9991
2 33896  73.7685  17.0560 0123880 146.9518 331.5612 14.19723496906420

AllMySatでCOSMOS 2251 DEBをリアルタイム追跡

Download on the App Store